Hourly Data Report for July 05, 2021

WRIGLEY A
NORTHWEST TERRITORIES
Current Station Operator: NAVCAN

63°12'35.000" N
123°26'12.000" W
149.70 m
2204005
YWY

Download Data

Hourly Data (July 2021)
Hourly Data Report for July 5, 2021
TIME
LST
Temp Definition
°C
Dew Point Definition
°C
Rel Hum Definition
%
Precip. Amount Definition
mm

Wind Dir Definition
10's deg

Wind Spd Definition
km/h
Visibility Definition
km
Stn Press Definition
kPa
Hmdx Definition


Wind Chill Definition


Weather Definition


00:00 19.2 15.0 76 LegendMM 14 4 LegendMM 100.13     LegendNANA
01:00 17.7 15.2 85 LegendMM 7 5 LegendMM 100.17     LegendNANA
02:00 17.8 15.0 84 LegendMM 15 7 LegendMM 100.18     LegendNANA
03:00 16.7 14.7 88 LegendMM 13 6 LegendMM 100.21     LegendNANA
04:00 16.0 14.3 90 LegendMM 11 7 LegendMM 100.26     LegendNANA
05:00 16.4 14.0 86 LegendMM 13 7 LegendMM 100.25     LegendNANA
06:00 16.2 14.2 88 LegendMM 13 5 LegendMM 100.29     LegendNANA
07:00 16.7 14.3 86 LegendMM 29 3 LegendMM 100.29     LegendNANA
08:00 18.1 14.7 81 LegendMM 26 4 LegendMM 100.29     LegendNANA
09:00 19.0 14.0 72 LegendMM 17 8 LegendMM 100.27     LegendNANA
10:00 20.5 15.5 73 LegendMM 15 8 LegendMM 100.24 25   LegendNANA
11:00 21.7 15.3 67 LegendMM 13 11 LegendMM 100.19 26   LegendNANA
12:00 23.0 14.8 60 LegendMM 16 10 LegendMM 100.17 27   LegendNANA
13:00 23.6 14.1 55 LegendMM 14 11 LegendMM 100.13 27   LegendNANA
14:00 24.9 12.6 46 LegendMM 15 16 LegendMM 100.04 27   LegendNANA
15:00 25.7 13.1 45 LegendMM 15 16 LegendMM 99.95 29   LegendNANA
16:00 26.6 11.6 39 LegendMM 17 13 LegendMM 99.93 29   LegendNANA
17:00 26.2 13.4 45 LegendMM 16 15 LegendMM 99.86 29   LegendNANA
18:00 25.2 13.3 47 LegendMM 17 14 LegendMM 99.83 28   LegendNANA
19:00 23.7 13.9 54 LegendMM 15 12 LegendMM 99.83 27   LegendNANA
20:00 22.5 14.8 61 LegendMM 14 10 LegendMM 99.79 26   LegendNANA
21:00 22.6 14.6 60 LegendMM 11 9 LegendMM 99.74 26   LegendNANA
22:00 22.3 14.6 61 LegendMM 12 7 LegendMM 99.66 26   LegendNANA
23:00 20.2 14.8 71 LegendMM 14 9 LegendMM 99.65     LegendNANA

Notes on Data Quality.

Legend

  • E = Estimated
  • M = Missing
  • NA = Not Available*
  • [empty] = Indicates an unobserved value
Date modified: